User: anonymous   Login
Location: Babice
(50.3480°N, 22.9363°E)
Time: 22:36:12
(UTC+00:00)
Language:

Cosmos 1536 - Orbit

View from above orbital plane
View from above orbital plane
View from above satellite
View from above satellite

Ground track
Ground track

The orbit data is extracted from the following two-line orbital elements,

1 14699U 84013A   20269.91502873 +.00000097 +00000-0 +46732-5 0  9992
2 14699 082.5242 250.3488 0011217 293.6849 066.3201 15.05638437971970
Epoch (UTC): 25 September 2020 21:57:38
Eccentricity: 0.0011217
inclination: 82.5242°
perigee height: 542 km
apogee height: 557 km
right ascension of ascending node: 250.3488°
argument of perigee: 293.6849°
revolutions per day: 15.05638437
mean anomaly at epoch: 66.3201°
orbit number at epoch: 97197

The dashed part of the orbit path shows where the satellite is in the earth's shadow,  

DLR